Welcome to mirrors.dotsrc.org

All our mirrors of open source software are available via http, https, ftp and an onion service. More information about our mirrors including statistics and contact information is available on our mirror info pages.

For information about dotsrc.org and our other services please go to our website.

Index of /mirrors/pub/pub/mirrors/armbian-apt/pool/main/a/

File Name  ↓ File Size  ↓ Date  ↓ 
Parent directory/--
aptly/-2023-01-16 07:13:45
armbian-bionic-desktop-xfce/-2023-01-16 07:13:45
armbian-bsp-cli-bananapi/-2023-01-24 08:17:14
armbian-bsp-cli-bananapim2plus/-2023-01-24 08:17:14
armbian-bsp-cli-bananapim5/-2023-01-24 08:17:14
armbian-bsp-cli-bananapim64/-2023-01-24 08:17:14
armbian-bsp-cli-bananapipro/-2023-01-24 08:17:14
armbian-bsp-cli-bananapir2pro/-2023-01-24 08:17:14
armbian-bsp-cli-clearfogbase/-2023-01-24 08:17:14
armbian-bsp-cli-clearfogpro/-2023-01-24 08:17:14
armbian-bsp-cli-clockworkpi-a06/-2023-01-24 08:17:14
armbian-bsp-cli-cubox-i/-2023-01-16 07:25:18
armbian-bsp-cli-espressobin/-2023-01-24 08:17:14
armbian-bsp-cli-firefly-rk3399/-2023-01-24 08:17:14
armbian-bsp-cli-helios4/-2023-01-24 08:17:14
armbian-bsp-cli-helios64/-2023-01-16 07:13:45
armbian-bsp-cli-jethubj100/-2023-01-24 08:17:14
armbian-bsp-cli-jethubj80/-2023-01-24 08:17:14
armbian-bsp-cli-jetson-nano/-2023-01-16 07:25:18
armbian-bsp-cli-jetson-nano-grub/-2023-01-24 08:17:14
armbian-bsp-cli-khadas-edge/-2023-01-24 08:17:14
armbian-bsp-cli-khadas-vim1/-2023-01-24 08:17:14
armbian-bsp-cli-khadas-vim2/-2023-01-24 08:17:14
armbian-bsp-cli-khadas-vim3/-2023-01-24 08:17:14
armbian-bsp-cli-khadas-vim3l/-2023-01-24 08:17:14
armbian-bsp-cli-lafrite/-2023-01-24 08:17:14
armbian-bsp-cli-lepotato/-2023-01-24 08:17:14
armbian-bsp-cli-lime-a64/-2023-01-24 08:17:14
armbian-bsp-cli-lime2/-2023-01-24 08:17:14
armbian-bsp-cli-melea1000/-2023-01-24 08:17:14
armbian-bsp-cli-nanopct4/-2023-01-24 08:17:14
armbian-bsp-cli-nanopi-r1/-2023-01-24 08:17:14
armbian-bsp-cli-nanopi-r1s-h5/-2023-01-24 08:17:14
armbian-bsp-cli-nanopi-r2c/-2023-01-24 08:17:14
armbian-bsp-cli-nanopi-r2s/-2023-01-24 08:17:14
armbian-bsp-cli-nanopi-r4s/-2023-01-24 08:17:14
armbian-bsp-cli-nanopiduo/-2023-01-24 08:17:14
armbian-bsp-cli-nanopik1plus/-2023-01-24 08:17:14
armbian-bsp-cli-nanopim4/-2023-01-24 08:17:14
armbian-bsp-cli-nanopim4v2/-2023-01-24 08:17:14
armbian-bsp-cli-nanopineo/-2023-01-24 08:17:14
armbian-bsp-cli-nanopineo2/-2023-01-24 08:17:14
armbian-bsp-cli-nanopineo2black/-2023-01-24 08:17:14
armbian-bsp-cli-nanopineo3/-2023-01-24 08:17:14
armbian-bsp-cli-nanopineoplus2/-2023-01-24 08:17:14
armbian-bsp-cli-odroidc2/-2023-01-24 08:17:14
armbian-bsp-cli-odroidc4/-2023-01-24 08:17:14
armbian-bsp-cli-odroidhc4/-2023-01-24 08:17:14
armbian-bsp-cli-odroidm1/-2023-01-24 08:17:14
armbian-bsp-cli-odroidn2/-2023-01-24 08:17:14
armbian-bsp-cli-odroidxu4/-2023-01-24 08:17:14
armbian-bsp-cli-onecloud/-2023-01-24 08:17:14
armbian-bsp-cli-orangepi-r1/-2023-01-24 08:17:14
armbian-bsp-cli-orangepi-r1plus/-2023-01-24 08:17:14
armbian-bsp-cli-orangepi-r1plus-lts/-2023-01-24 08:17:14
armbian-bsp-cli-orangepi3/-2023-01-24 08:17:14
armbian-bsp-cli-orangepi3-lts/-2023-01-24 08:17:14
armbian-bsp-cli-orangepi4/-2023-01-24 08:17:14
armbian-bsp-cli-orangepi4-lts/-2023-01-24 08:17:14
armbian-bsp-cli-orangepi5/-2023-01-24 08:17:14
armbian-bsp-cli-orangepilite/-2023-01-24 08:17:14
armbian-bsp-cli-orangepilite2/-2023-01-24 08:17:14
armbian-bsp-cli-orangepione/-2023-01-24 08:17:14
armbian-bsp-cli-orangepioneplus/-2023-01-24 08:17:14
armbian-bsp-cli-orangepipc/-2023-01-24 08:17:14
armbian-bsp-cli-orangepipc2/-2023-01-24 08:17:15
armbian-bsp-cli-orangepipcplus/-2023-01-24 08:17:15
armbian-bsp-cli-orangepiplus/-2023-01-24 08:17:15
armbian-bsp-cli-orangepiplus2e/-2023-01-24 08:17:15
armbian-bsp-cli-orangepiprime/-2023-01-24 08:17:15
armbian-bsp-cli-orangepizero/-2023-01-24 08:17:15
armbian-bsp-cli-orangepizero2/-2023-01-24 08:17:15
armbian-bsp-cli-orangepizeroplus/-2023-01-24 08:17:15
armbian-bsp-cli-orangepizeroplus2-h3/-2023-01-24 08:17:15
armbian-bsp-cli-pine64/-2023-01-24 08:17:15
armbian-bsp-cli-pine64so/-2023-01-24 08:17:15
armbian-bsp-cli-pinebook-a64/-2023-01-16 07:25:19
armbian-bsp-cli-pinebook-pro/-2023-01-24 08:17:15
armbian-bsp-cli-pineh64-b/-2023-01-24 08:17:15
armbian-bsp-cli-quartz64a/-2023-01-24 08:17:15
armbian-bsp-cli-radxa-zero/-2023-01-24 08:17:15
armbian-bsp-cli-radxa-zero2/-2023-01-24 08:17:15
armbian-bsp-cli-renegade/-2023-01-24 08:17:15
armbian-bsp-cli-rk322x-box/-2023-01-24 08:17:15
armbian-bsp-cli-rock-3a/-2023-01-24 08:17:15
armbian-bsp-cli-rock-5b/-2023-01-24 08:17:15
armbian-bsp-cli-rock64/-2023-01-24 08:17:15
armbian-bsp-cli-rockpi-4a/-2023-01-24 08:17:15
armbian-bsp-cli-rockpi-4b/-2023-01-24 08:17:15
armbian-bsp-cli-rockpi-4c/-2023-01-24 08:17:15
armbian-bsp-cli-rockpi-4cplus/-2023-01-24 08:17:15
armbian-bsp-cli-rockpi-s/-2023-01-24 08:17:15
armbian-bsp-cli-rockpro64/-2023-01-24 08:17:15
armbian-bsp-cli-rpi4b-fkraspi/-2023-01-24 08:17:15
armbian-bsp-cli-station-m1/-2023-01-24 08:17:15
armbian-bsp-cli-station-m2/-2023-01-24 08:17:15
armbian-bsp-cli-station-m3/-2023-01-24 08:17:15
armbian-bsp-cli-station-p1/-2023-01-24 08:17:15
armbian-bsp-cli-station-p2/-2023-01-24 08:17:15
armbian-bsp-cli-tinkerboard/-2023-01-24 08:17:15
armbian-bsp-cli-tinkerboard-2/-2023-01-16 07:25:19
armbian-bsp-cli-tritium-h3/-2023-01-24 08:17:15
armbian-bsp-cli-tritium-h5/-2023-01-24 08:17:15
armbian-bsp-cli-udoo/-2023-01-24 08:17:15
armbian-bsp-cli-uefi-arm64-grub/-2023-01-24 08:17:15
armbian-bsp-cli-uefi-riscv64-grub/-2023-01-24 08:17:15
armbian-bsp-cli-uefi-x86-grub/-2023-01-24 08:17:15
armbian-bsp-cli-virtual-qemu/-2023-01-24 08:17:15
armbian-bsp-cli-xt-q8l-v10/-2023-01-24 08:17:15
armbian-bsp-cli-zeropi/-2023-01-24 08:17:15
armbian-bullseye-desktop-budgie/-2023-01-26 13:20:34
armbian-bullseye-desktop-cinnamon/-2023-01-26 13:20:34
armbian-bullseye-desktop-gnome/-2023-01-26 13:20:34
armbian-bullseye-desktop-kde-plasma/-2023-01-26 13:20:34
armbian-bullseye-desktop-mate/-2023-01-26 13:20:34
armbian-bullseye-desktop-xfce/-2023-01-26 13:20:34
armbian-bullseye-desktop-xmonad/-2023-01-26 13:20:34
armbian-buster-desktop-cinnamon/-2023-01-26 13:11:22
armbian-buster-desktop-gnome/-2023-01-26 13:11:22
armbian-buster-desktop-lxde/-2023-01-26 13:11:22
armbian-buster-desktop-mate/-2023-01-26 13:11:22
armbian-buster-desktop-xfce/-2023-01-16 07:13:45
armbian-config/-2023-01-24 08:17:15
armbian-firmware/-2023-01-24 08:17:15
armbian-firmware-full/-2023-01-24 08:17:15
armbian-focal-desktop-budgie/-2023-01-26 12:44:36
armbian-focal-desktop-cinnamon/-2023-01-26 12:44:36
armbian-focal-desktop-deepin/-2023-01-26 12:44:36
armbian-focal-desktop-enlightenment/-2023-01-26 12:44:36
armbian-focal-desktop-gnome/-2023-01-26 12:44:36
armbian-focal-desktop-i3-wm/-2023-01-26 12:44:36
armbian-focal-desktop-kde-plasma/-2023-01-26 12:44:36
armbian-focal-desktop-xfce/-2023-01-26 12:44:36
armbian-jammy-desktop-budgie/-2023-01-26 13:02:12
armbian-jammy-desktop-cinnamon/-2023-01-26 13:02:12
armbian-jammy-desktop-gnome/-2023-01-26 13:02:12
armbian-jammy-desktop-i3-wm/-2023-01-26 13:02:12
armbian-jammy-desktop-mate/-2023-01-26 13:02:12
armbian-jammy-desktop-xfce/-2023-01-26 13:02:12
armbian-jammy-desktop-xmonad/-2023-01-26 13:02:12
armbian-kinetic-desktop-cinnamon/-2023-01-26 13:10:44
armbian-kinetic-desktop-gnome/-2023-01-26 13:10:44
armbian-kinetic-desktop-xfce/-2023-01-26 13:10:44
armbian-lunar-desktop-cinnamon/-2023-01-26 13:10:25
armbian-lunar-desktop-gnome/-2023-01-26 13:10:25
armbian-lunar-desktop-xfce/-2023-01-26 13:10:25
armbian-plymouth-theme/-2023-01-24 08:17:16
armbian-sid-desktop-budgie/-2023-01-26 13:31:35
armbian-sid-desktop-cinnamon/-2023-01-26 13:31:36
armbian-sid-desktop-gnome/-2023-01-26 13:31:36
armbian-sid-desktop-kde-plasma/-2023-01-26 13:31:36
armbian-sid-desktop-lxde/-2023-01-26 13:31:36
armbian-sid-desktop-xfce/-2023-01-26 13:31:36
armbian-zsh/-2023-01-24 08:17:16